Regional Weather Roundup
Issued by NWS Newport/Morehead, NC

Current Version | Previous Version | Graphics & Text | Print | Product List | Glossary Off
Versions: 1 2 3 4 5 6 7 8 9 10 11 12 13 14 15 16 17 18 19 20 21 22 23 24 25 26 27 28 29 30 31 32 33 34 35 36 37 38 39 40 41 42 43 44 45 46 47 48 49 50
000 ASUS42 KMHX 272313 RWRMHX WEATHER ROUNDUP FOR EASTERN NORTH CAROLINA NATIONAL WEATHER SERVICE NEWPORT/MOREHEAD CITY NC 700 PM EDT FRI MAY 27 2016 NOTE: "FAIR" INDICATES FEW OR NO CLOUDS BELOW 12,000 FEET WITH NO SIGNIFICANT WEATHER AND/OR OBSTRUCTIONS TO VISIBILITY NCZ015>017-031-032-045>047-102-103-280000- NORTH COAST CITY SKY/WX TMP DP RH WIND PRES REMARKS EDENTON SUNNY 80 59 48 S10 30.12S ELIZABETH CITY SUNNY 79 57 46 S8 30.11F KITTY HAWK CLEAR 79 62 55 SE9 30.12S MANTEO NOT AVBL $$ NCZ045>047-081-094-103-104-280000- CENTRAL COAST CITY SKY/WX TMP DP RH WIND PRES REMARKS FRISCO SUNNY 78 63 59 SE6 30.14S $$ NCZ095-097-098-100-101-280000- SOUTHERN COAST CITY SKY/WX TMP DP RH WIND PRES REMARKS BEAUFORT SUNNY 77 62 59 SE8 30.13S CEDAR ISLAND NOT AVBL JACKSONVILLE SUNNY 77 60 55 SE12 30.11F PINEY ISLAND CLEAR N/A N/A N/A E9 30.13S WILMINGTON SUNNY 77 61 57 E10 30.11F $$ NCZ011>013-027>030-043-044-078>080-089-090>093-098-280000- COASTAL PLAIN CITY SKY/WX TMP DP RH WIND PRES REMARKS AHOSKIE SUNNY 80 59 47 S12 30.09S CLINTON SUNNY 82 58 44 S3 30.10S ELIZABETHTOWN SUNNY 82 53 37 SE6 30.10R GOLDSBORO SUNNY 83 56 39 S9 30.08S GREENVILLE SUNNY 82 55 39 SE13 30.11S HAVELOCK SUNNY 78 60 53 SE9 30.13S KENANSVILLE SUNNY 80 54 41 CALM 30.11S KINSTON SUNNY 81 55 41 S12 30.11S NEW BERN SUNNY 79 58 48 SE6 30.12S RICHLANDS SUNNY 78 60 53 S9 30.12S ROCKY MOUNT SUNNY 84 59 42 S6 30.08S WASHINGTON SUNNY 80 60 51 SE8 30.11S WHITEVILLE SUNNY 81 54 39 S7 30.09S $$ AMZ130-135-150-152-154-156-158-170-250-252-270-ANZ085-086-088-633-658-670-280000- MARINE OBSERVATIONS STATION/POSITION TIME TEMP WIND PRES WAVE SWELL AIR SEA DIR/SP/G HT/PER HT/PER (UTC) (F) (DEG/KT/KT) (MB) (FT/S) (FT/S) CHESAPEAKE LIGHT 2300 72 160/ 19/ 19 1020.4 64 E VA BEACH 2250 69 63 150/ 6/ 6 1020.5 2/ 8 2/ 8 DUCK 2200 1019.4 2 E DUCK 2211 64 N/A 2/ 8 OREGON INLET 2200 1020.6 13E OREGON INLT 2300 71 N/A 2/ 7 2/ 7 HATTERAS CG 2200 1020.1 DIAMOND BUOY 2250 77 78 130/ 10/ 12 1020.3 3/ 7 2/ 7 CAPE LOOKOUT 2300 75 110/ 7/ 7 1020.0 BEAUFORT LAB 2200 1019.4 30 SE NEW RVR IN 2225 75 N/A 3/ 8 27 SE WRIGHTSVLE 2208 77 75 120/ 8/ 10 1019.7 5 SE WRIGHTSVLE 2208 76 75 70/ 6/ 10 1020.7 225 S CAPE HAT 2250 77 78 80/ 19/ 21 1017.0 5/ 5 2/ 8 41 SE CHARLESTON 2250 76 77 30/ 16/ 17 1017.8 4/ 4 2/ 8 $$

USA.gov is the U.S. government's official web portal to all federal, state and local government web resources and services.